Flag Weather past 2 weeks in Roskilde, Denmark

Now
43 °F

Passing clouds.


Feels Like: 41 °F
Forecast: 48 / 58 °F
Wind: 3 mph from Southeast

Location: Koebenhavn / Roskilde

Current Time: Oct 31, 2014 at 1:12:00 AM

Latest Report: Oct 31, 2014 at 12:20 AM


Visibility: N/A

Pressure: 30.27 "Hg

Humidity: 93%

Dew point: 41 °F

Location of RoskildeLocation

Historic Weather in Roskilde — Graph

°F

Roskilde temperature yesterday

Maximum temperature yesterday: 52 °F (at 1:20 PM)
Minimum temperature yesterday: 36 °F (at 6:50 AM)
Average temperature yesterday: 42 °F

Past Weeks' High & Low Weather Summary

 TemperatureHumidityPressure
High61 °F (Oct 19, 3:50 PM)100% (Oct 16, 12:20 AM)30.27 "Hg (Oct 16, 12:20 AM)
Low36 °F (Oct 30, 6:50 AM)62% (Oct 29, 2:50 PM)29.36 "Hg (Oct 21, 9:50 PM)
Average52 °F92%29.94 "Hg
* Reported Oct 16 12:20 AM — Oct 30 11:50 PM, Roskilde, Weather by CustomWeather, © 2014

Note: Actual official high and low records may vary slightly from our data, if they occured in-between our weather recording intervals... More about our weather records

Advertising

Roskilde weather history for previous 24 hours

 ConditionsComfort  
Time TempWeatherWind HumidityBarometerVisibility
11:50 PM
Oct 30
41 °FPassing clouds.3 mph93%30.27 "HgN/A
11:20 PM41 °FPassing clouds.3 mph93%30.27 "HgN/A
10:50 PM41 °FPartly cloudy.3 mph93%30.27 "HgN/A
10:20 PM41 °FPassing clouds.5 mph93%30.27 "HgN/A
9:50 PM41 °FPassing clouds.3 mph93%30.27 "HgN/A
9:20 PM41 °FPassing clouds.1 mph93%30.27 "Hg6 mi
8:50 PM37 °FChilly.1 mph100%30.27 "Hg6 mi
8:20 PM39 °FChilly.3 mph93%30.27 "HgN/A
7:50 PM41 °FPassing clouds.No wind93%30.27 "HgN/A
7:20 PM41 °FPassing clouds.2 mph93%30.27 "HgN/A
6:50 PM39 °FChilly.2 mph93%30.27 "HgN/A
6:20 PM41 °FQuite cool.No wind93%30.27 "HgN/A
5:50 PM45 °FQuite cool.No wind81%30.27 "HgN/A
5:20 PM43 °FQuite cool.No wind93%30.27 "HgN/A
4:50 PM45 °FQuite cool.No wind81%30.27 "HgN/A
4:20 PM46 °FCool.3 mph76%30.27 "HgN/A
3:50 PM50 °FCool.3 mph71%30.24 "HgN/A
3:20 PM50 °FCool.3 mph71%30.24 "HgN/A
2:50 PM50 °FPassing clouds.3 mph71%30.24 "HgN/A
2:20 PM50 °FPassing clouds.6 mph71%30.24 "HgN/A
1:50 PM52 °FPassing clouds.7 mph67%30.24 "HgN/A
1:20 PM52 °FPassing clouds.7 mph67%30.24 "HgN/A
12:50 PM50 °FPassing clouds.7 mph71%30.24 "HgN/A
12:20 PM50 °FPassing clouds.7 mph71%30.24 "HgN/A
11:50 AM50 °FCool.7 mph76%30.24 "HgN/A
11:20 AM50 °FCool.6 mph82%30.24 "HgN/A
10:50 AM48 °FCool.3 mph87%30.24 "HgN/A
10:20 AM46 °FCool.3 mph93%30.24 "HgN/A
9:50 AM46 °FCool.2 mph87%30.24 "HgN/A
9:20 AM43 °FQuite cool.5 mph100%30.24 "HgN/A
8:50 AM41 °FQuite cool.2 mph100%30.21 "HgN/A
8:20 AM39 °FLight fog.1 mph100%30.21 "Hg1 mi
7:50 AM37 °FLight fog.1 mph100%30.21 "Hg1 mi
7:20 AM36 °FFog.3 mph100%30.21 "Hg1 mi
6:50 AM36 °FFog.3 mph100%30.18 "Hg0 mi
6:20 AM37 °FFog.2 mph100%30.18 "Hg0 mi
5:50 AM37 °FLight fog.2 mph100%30.18 "Hg1 mi
5:20 AM37 °FFog.2 mph100%30.18 "Hg1 mi
4:50 AM39 °FChilly.3 mph100%30.18 "Hg4 mi
4:20 AM37 °FChilly.3 mph100%30.18 "Hg4 mi
3:50 AM39 °FChilly.3 mph93%30.15 "Hg5 mi
3:20 AM37 °FChilly.3 mph100%30.15 "HgN/A
2:50 AM37 °FPassing clouds.2 mph100%30.15 "Hg4 mi
2:20 AM39 °FChilly.2 mph100%30.15 "Hg6 mi
1:50 AM39 °FFog.2 mph100%30.15 "Hg1 mi
1:20 AM39 °FFog.2 mph100%30.15 "Hg1 mi
Weather by CustomWeather, © 2014

See weather overviewHow to use our weather pages